TimePDT,TemperatureF,Dew PointF,Humidity,Sea Level PressureIn,VisibilityMPH,Wind Direction,Wind SpeedMPH,Gust SpeedMPH,PrecipitationIn,Events,Conditions,WindDirDegrees,DateUTC
12:26 AM,53.6,-9999,N/A,30.09,10.0,Calm,Calm,-,N/A,,Scattered Clouds,0,2012-10-15 07:26:00
12:53 AM,54.0,-9999,N/A,30.09,10.0,Calm,Calm,-,N/A,,Clear,0,2012-10-15 07:53:00
1:33 AM,53.6,-9999,N/A,30.09,10.0,Calm,Calm,-,N/A,,Partly Cloudy,0,2012-10-15 08:33:00
1:45 AM,53.6,-9999,N/A,30.09,9.0,Calm,Calm,-,N/A,,Mostly Cloudy,0,2012-10-15 08:45:00
1:53 AM,54.0,-9999,N/A,30.09,9.0,Calm,Calm,-,N/A,,Mostly Cloudy,0,2012-10-15 08:53:00
2:17 AM,53.6,-9999,N/A,30.09,7.0,Calm,Calm,-,N/A,,Overcast,0,2012-10-15 09:17:00
2:53 AM,54.0,-9999,N/A,30.09,6.0,NW,4.6,-,N/A,,Haze,310,2012-10-15 09:53:00
3:20 AM,53.6,-9999,N/A,30.08,10.0,Calm,Calm,-,N/A,,Overcast,0,2012-10-15 10:20:00
3:53 AM,54.0,-9999,N/A,30.07,7.0,Calm,Calm,-,N/A,,Overcast,0,2012-10-15 10:53:00
4:53 AM,54.0,-9999,N/A,30.07,6.0,Calm,Calm,-,N/A,,Haze,0,2012-10-15 11:53:00
5:07 AM,53.6,53.6,100,30.07,5.0,Calm,Calm,-,N/A,,Overcast,0,2012-10-15 12:07:00
5:53 AM,59.0,55.4,88,30.07,4.0,Calm,Calm,-,N/A,,Overcast,0,2012-10-15 12:53:00
6:53 AM,59.0,57.4,94,30.08,5.0,WNW,3.5,-,N/A,,Overcast,290,2012-10-15 13:53:00
7:53 AM,58.6,57.9,97,30.08,1.5,Calm,Calm,-,N/A,,Overcast,0,2012-10-15 14:53:00
8:53 AM,58.1,57.9,99,30.08,1.5,Calm,Calm,-,N/A,,Overcast,0,2012-10-15 15:53:00
9:19 AM,59.0,57.2,94,30.09,3.0,Calm,Calm,-,N/A,,Overcast,0,2012-10-15 16:19:00
9:53 AM,58.6,57.7,97,30.09,3.0,Calm,Calm,-,N/A,,Overcast,0,2012-10-15 16:53:00
10:53 AM,57.9,57.9,100,30.09,10.0,Calm,Calm,-,N/A,,Overcast,0,2012-10-15 17:53:00
11:19 AM,60.8,57.2,88,30.09,10.0,NW,6.9,-,N/A,,Mostly Cloudy,320,2012-10-15 18:19:00
11:33 AM,62.6,57.2,82,30.09,10.0,NNW,6.9,-,N/A,,Scattered Clouds,330,2012-10-15 18:33:00
11:53 AM,63.0,57.9,84,30.08,10.0,NW,6.9,-,N/A,,Clear,310,2012-10-15 18:53:00
12:53 PM,64.9,57.0,75,30.06,10.0,NW,6.9,-,N/A,,Clear,320,2012-10-15 19:53:00
1:53 PM,70.0,57.0,63,30.01,10.0,NW,4.6,-,N/A,,Clear,320,2012-10-15 20:53:00
2:53 PM,73.0,55.9,55,29.99,10.0,NNW,8.1,-,N/A,,Clear,330,2012-10-15 21:53:00
3:53 PM,73.9,57.0,55,29.98,10.0,WNW,12.7,-,N/A,,Clear,300,2012-10-15 22:53:00
4:53 PM,73.0,57.0,57,29.97,10.0,NW,10.4,-,N/A,,Clear,310,2012-10-15 23:53:00
5:53 PM,71.1,55.9,59,29.97,10.0,NW,8.1,-,N/A,,Clear,320,2012-10-16 00:53:00
6:53 PM,66.9,55.0,66,29.98,10.0,WNW,6.9,-,N/A,,Clear,300,2012-10-16 01:53:00
7:53 PM,64.0,57.0,78,29.99,10.0,NW,4.6,-,N/A,,Clear,310,2012-10-16 02:53:00
8:53 PM,62.1,57.9,86,30.00,10.0,NW,6.9,-,N/A,,Clear,310,2012-10-16 03:53:00
9:53 PM,61.0,59.0,93,30.01,10.0,Calm,Calm,-,N/A,,Clear,0,2012-10-16 04:53:00
10:53 PM,60.1,59.0,96,30.01,10.0,WNW,3.5,-,N/A,,Clear,300,2012-10-16 05:53:00
11:53 PM,59.0,57.9,96,30.01,10.0,Calm,Calm,-,N/A,,Clear,0,2012-10-16 06:53:00